Content
SEND FEEDBACK

Daily
Averages
Monthly
Summary
United States of America

LOOMIS, WASHINGTON


Home > North America > United States > Washington
Elevation: 1471 feet     Latitude: 48 58N     Longitude: 119 30W

WEATHER
 
SELECT A DAY
Number of Records: 134,782;   Date Range: 1/1/95 - 4/14/14
 
SHARE

PRINT THIS DATA

[ ← Previous Day ]
WEATHER ALMANAC - FEBRUARY 13, 2013
[ Next Day → ]
[ °C ]   °F
Weather ElementAverageHighLow
Temperature33.6 °F43.3 °F (3:00 pm)27.3 °F (7:00 am)
Dewpoint28.3 °F30.6 °F (5:00 pm)26.2 °F (11:00 pm)
Humidity81.3 %96 % (3:00 am)48 % (4:00 pm)
Barometer30.27 in30.40 in (11:00 pm)30.14 in (1:00 am)
Wind Speed2.2 mph4.6 mph (12:00 pm)
Weather ElementAverage
Wind DirectionSE (137.8 °)

Weather ElementTotal
Precipitation---
Heating Degree Days29.7 (Base 65)
Averaged from 27 records on February 13, 2013
WEATHER CONDITIONS BREAKOUT
WIND DIRECTION BREAKOUT
WEATHER BY HOUR - FEBRUARY 13, 2013
[ °C ]   °F
Local TimeTemperatureDewpointHumidityBarometerVisibilityWind DirectionWind SpeedGust SpeedPrecipitationEventsConditions
1:00 AM29.5 °F28.2 °F95 %30.14 inNE (50°)1.2 mph
2:00 AM28.8 °F27.5 °F95 %30.16 inENE (60°)1.2 mph
3:00 AM27.9 °F26.8 °F96 %30.16 inSSW (210°)1.2 mph
4:00 AM28.0 °F27.0 °F94 %30.18 inSSE (150°)3.5 mph
4:00 AM28.2 °F27.0 °F95 %30.18 inSSE (150°)3.5 mph
5:00 AM30.2 °F28.6 °F94 %30.18 inSW (220°)3.5 mph
6:00 AM28.2 °F27.0 °F95 %30.21 inNE (50°)2.3 mph
7:00 AM27.3 °F26.4 °F96 %30.22 inNNE (30°)1.2 mph
8:00 AM28.6 °F27.7 °F96 %30.25 inSouth (170°)2.3 mph
9:00 AM31.8 °F28.2 °F87 %30.26 inSSW (200°)2.3 mph
10:00 AM34.0 °F29.0 °F74 %30.28 inSSW (200°)3.5 mph
10:00 AM34.0 °F28.8 °F81 %30.28 inSSW (200°)3.5 mph
11:00 AM36.9 °F28.8 °F72 %30.29 inSSW (210°)2.3 mph
12:00 PM39.2 °F28.4 °F65 %30.27 inSSW (200°)4.6 mph
1:00 PM41.7 °F30.0 °F63 %30.27 inSouth (180°)2.3 mph
2:00 PM43.2 °F29.8 °F59 %30.27 inSSE (160°)2.3 mph
3:00 PM43.3 °F30.4 °F60 %30.28 inSSW (210°)2.3 mph
4:00 PM43.0 °F30.0 °F48 %30.28 inSSW (210°)2.3 mph
4:00 PM43.0 °F30.0 °F60 %30.28 inSSW (210°)2.3 mph
5:00 PM41.0 °F30.6 °F66 %30.29 inSW (230°)1.2 mph
6:00 PM36.3 °F29.8 °F77 %30.31 inEast (100°)2.3 mph
7:00 PM33.8 °F29.8 °F85 %30.33 inEast (100°)1.2 mph
8:00 PM30.6 °F27.7 °F89 %30.35 inNorth (10°)2.3 mph
9:00 PM30.2 °F27.7 °F90 %30.36 inCalm
10:00 PM30.0 °F27.0 °F83 %30.38 inEast (80°)1.2 mph
10:00 PM29.7 °F26.8 °F89 %30.38 inEast (80°)1.2 mph
11:00 PM28.6 °F26.2 °F91 %30.40 inNE (50°)1.2 mph
Hourly data recorded from CWYY, located 2.95 miles away from Loomis, Washington







STORIES FROM OUR PARTNERS